SWR8439 LDSP-LSZH

Flight info

Callsign SWR8439
Flight time 1h 12m
Altitude 38000
Route ZDA DCT MONFA DCT BAKOR DCT SOTOV/N0421F300 P66 KPT L856 NEGRA
Aircraft A20N/M-SADE2E3FGIRWXY/LB1

Departure

Time 2026-04-30 17:41
Airport Split Saint Jerome Airport (LDSP)

Arrival

Time 2026-04-30 18:54
Airport Zürich Airport (LSZH)
Time Latitude Longitude Altitude Speed Heading
2026-04-30 17:39 43.53316 16.28764 90 ft 56 kts 53°
2026-04-30 17:41 43.49178 16.38365 4039 ft 256 kts 136°
2026-04-30 17:42 43.46111 16.41032 5321 ft 275 kts 164°
2026-04-30 17:42 43.41712 16.36760 7232 ft 282 kts 248°
2026-04-30 17:43 43.39921 16.31946 8488 ft 285 kts 241°
2026-04-30 17:44 43.37426 16.24519 10427 ft 289 kts 265°
2026-04-30 17:44 43.38521 16.16301 12311 ft 312 kts 304°
2026-04-30 17:46 43.47335 16.05641 15508 ft 366 kts 322°
2026-04-30 17:47 43.55553 15.96632 18445 ft 384 kts 321°
2026-04-30 17:48 43.63954 15.87359 21425 ft 389 kts 321°
2026-04-30 17:48 43.70274 15.80360 23857 ft 385 kts 320°
2026-04-30 17:49 43.78490 15.71231 26700 ft 373 kts 320°
2026-04-30 17:50 43.86678 15.62098 28491 ft 384 kts 320°
2026-04-30 17:51 43.92960 15.55069 29768 ft 392 kts 320°
2026-04-30 17:52 43.99361 15.47889 30963 ft 396 kts 320°
2026-04-30 17:53 44.09914 15.35809 32860 ft 390 kts 315°
2026-04-30 17:54 44.17419 15.25104 34415 ft 386 kts 314°
2026-04-30 17:55 44.24914 15.14151 35182 ft 395 kts 314°
2026-04-30 17:56 44.32623 15.02918 35711 ft 409 kts 314°
2026-04-30 17:57 44.38603 14.94173 36066 ft 419 kts 314°
2026-04-30 17:58 44.44649 14.85301 36457 ft 421 kts 314°
2026-04-30 17:59 44.52721 14.73411 36957 ft 421 kts 314°
2026-04-30 18:00 44.60747 14.61539 37468 ft 420 kts 314°
2026-04-30 18:00 44.66774 14.52589 37873 ft 420 kts 314°
2026-04-30 18:01 44.70796 14.46600 38117 ft 421 kts 314°
2026-04-30 18:02 44.76794 14.37646 38265 ft 420 kts 314°
2026-04-30 18:02 44.82801 14.28648 38268 ft 420 kts 314°
2026-04-30 18:04 44.94792 14.10601 38273 ft 422 kts 314°
2026-04-30 18:06 45.10139 13.87328 38272 ft 421 kts 314°
2026-04-30 18:08 45.24731 13.65016 38283 ft 421 kts 314°
2026-04-30 18:10 45.40498 13.40702 38290 ft 418 kts 314°
2026-04-30 18:11 45.53963 13.20710 38291 ft 421 kts 319°
2026-04-30 18:13 45.64684 13.06423 38280 ft 425 kts 318°
2026-04-30 18:14 45.75429 12.91840 38273 ft 426 kts 318°
2026-04-30 18:15 45.88323 12.74233 38284 ft 427 kts 318°
2026-04-30 18:16 45.96895 12.62462 38284 ft 426 kts 319°
2026-04-30 18:17 46.01183 12.56555 38283 ft 427 kts 319°
2026-04-30 18:18 46.07614 12.47671 38284 ft 427 kts 319°
2026-04-30 18:18 46.11898 12.41736 38281 ft 427 kts 319°
2026-04-30 18:19 46.16139 12.35846 38279 ft 427 kts 319°
2026-04-30 18:19 46.20425 12.29881 38285 ft 428 kts 319°
2026-04-30 18:20 46.24703 12.23911 38278 ft 427 kts 319°
2026-04-30 18:20 46.28980 12.17931 38264 ft 427 kts 319°
2026-04-30 18:21 46.33246 12.11953 38265 ft 427 kts 319°
2026-04-30 18:21 46.37515 12.05955 38253 ft 427 kts 319°
2026-04-30 18:22 46.41751 11.99992 38247 ft 426 kts 319°
2026-04-30 18:22 46.48135 11.90978 38250 ft 426 kts 319°
2026-04-30 18:23 46.52380 11.84968 38238 ft 426 kts 319°
2026-04-30 18:23 46.56609 11.78967 38212 ft 426 kts 319°
2026-04-30 18:24 46.62939 11.69823 38205 ft 429 kts 317°
2026-04-30 18:25 46.67059 11.63496 38208 ft 430 kts 316°
2026-04-30 18:25 46.73199 11.53965 38198 ft 430 kts 316°
2026-04-30 18:26 46.79326 11.44478 38197 ft 431 kts 317°
2026-04-30 18:27 46.85494 11.34916 38205 ft 431 kts 317°
2026-04-30 18:28 46.91654 11.25326 38217 ft 431 kts 317°
2026-04-30 18:28 46.98592 11.17169 37815 ft 425 kts 330°
2026-04-30 18:29 47.01068 11.14829 37573 ft 424 kts 331°
2026-04-30 18:29 47.08510 11.07918 36837 ft 424 kts 328°
2026-04-30 18:30 47.13193 11.02615 36389 ft 425 kts 327°
2026-04-30 18:30 47.17802 10.97142 35865 ft 426 kts 326°
2026-04-30 18:31 47.20073 10.94409 35577 ft 426 kts 326°
2026-04-30 18:31 47.24664 10.88870 34838 ft 427 kts 327°
2026-04-30 18:32 47.29273 10.83313 33834 ft 428 kts 328°
2026-04-30 18:32 47.31588 10.80526 33250 ft 431 kts 328°
2026-04-30 18:32 47.36257 10.74898 32201 ft 440 kts 327°
2026-04-30 18:33 47.38663 10.71992 31688 ft 442 kts 328°
2026-04-30 18:33 47.43591 10.66519 30698 ft 449 kts 327°
2026-04-30 18:33 47.45827 10.63318 30187 ft 458 kts 318°
2026-04-30 18:34 47.47749 10.59504 29631 ft 467 kts 308°
2026-04-30 18:34 47.50609 10.50867 28526 ft 466 kts 299°
2026-04-30 18:34 47.51816 10.46449 27938 ft 461 kts 297°
2026-04-30 18:35 47.52970 10.42035 27430 ft 457 kts 296°
2026-04-30 18:35 47.54109 10.37643 26902 ft 456 kts 296°
2026-04-30 18:35 47.55256 10.33256 26388 ft 456 kts 296°
2026-04-30 18:36 47.57562 10.24565 25465 ft 449 kts 296°
2026-04-30 18:36 47.58694 10.20343 25109 ft 445 kts 297°
2026-04-30 18:36 47.60973 10.11865 24243 ft 439 kts 296°
2026-04-30 18:37 47.62096 10.07686 23733 ft 435 kts 296°
2026-04-30 18:37 47.63209 10.03535 23177 ft 431 kts 296°
2026-04-30 18:37 47.64307 9.99430 22646 ft 427 kts 296°
2026-04-30 18:37 47.65398 9.95343 22119 ft 424 kts 296°
2026-04-30 18:38 47.66480 9.91284 21596 ft 421 kts 296°
2026-04-30 18:38 47.67555 9.87241 21085 ft 419 kts 295°
2026-04-30 18:38 47.68610 9.83271 20596 ft 417 kts 295°
2026-04-30 18:38 47.69670 9.79269 20240 ft 415 kts 295°
2026-04-30 18:39 47.70722 9.75291 19942 ft 414 kts 295°
2026-04-30 18:39 47.71770 9.71319 19640 ft 412 kts 295°
2026-04-30 18:39 47.72533 9.67196 19278 ft 416 kts 281°
2026-04-30 18:39 47.72774 9.62900 18946 ft 416 kts 275°
2026-04-30 18:40 47.72804 9.58594 18598 ft 416 kts 271°
2026-04-30 18:40 47.72704 9.54357 18171 ft 415 kts 269°
2026-04-30 18:40 47.72537 9.50094 17645 ft 412 kts 269°
2026-04-30 18:40 47.72316 9.45859 17123 ft 410 kts 263°
2026-04-30 18:41 47.71493 9.41830 16607 ft 409 kts 243°
2026-04-30 18:41 47.69914 9.38328 16111 ft 405 kts 232°
2026-04-30 18:41 47.68145 9.35093 15618 ft 401 kts 230°
2026-04-30 18:41 47.66397 9.31978 15134 ft 395 kts 230°
2026-04-30 18:42 47.64656 9.28865 14661 ft 389 kts 230°
2026-04-30 18:42 47.61252 9.22735 13672 ft 378 kts 230°
2026-04-30 18:42 47.59736 9.19589 13137 ft 370 kts 242°
2026-04-30 18:45 47.58723 8.86680 8161 ft 303 kts 277°
2026-04-30 18:45 47.58965 8.83593 7661 ft 298 kts 277°
2026-04-30 18:45 47.59198 8.80586 7275 ft 290 kts 277°
2026-04-30 18:46 47.59427 8.77619 6923 ft 289 kts 276°
2026-04-30 18:46 47.59654 8.74667 6547 ft 287 kts 277°
2026-04-30 18:46 47.59877 8.71741 6170 ft 285 kts 277°
2026-04-30 18:46 47.60099 8.68834 5826 ft 281 kts 277°
2026-04-30 18:47 47.60313 8.66016 5563 ft 275 kts 277°
2026-04-30 18:47 47.60522 8.63239 5365 ft 268 kts 277°
2026-04-30 18:47 47.60726 8.60539 5182 ft 260 kts 277°
2026-04-30 18:47 47.60921 8.57939 5109 ft 251 kts 277°
2026-04-30 18:48 47.61115 8.55352 4986 ft 254 kts 277°
2026-04-30 18:48 47.61309 8.52746 4858 ft 255 kts 277°
2026-04-30 18:48 47.61503 8.50136 4712 ft 255 kts 277°
2026-04-30 18:48 47.61698 8.47521 4616 ft 255 kts 277°
2026-04-30 18:49 47.61891 8.44907 4525 ft 254 kts 277°
2026-04-30 18:49 47.62074 8.42303 4384 ft 253 kts 275°
2026-04-30 18:49 47.61755 8.39765 4270 ft 253 kts 239°
2026-04-30 18:49 47.60516 8.38025 4129 ft 244 kts 196°
2026-04-30 18:50 47.58915 8.37717 4017 ft 234 kts 168°
2026-04-30 18:50 47.57308 8.38047 3966 ft 230 kts 160°
2026-04-30 18:50 47.56035 8.39266 3806 ft 211 kts 122°
2026-04-30 18:50 47.55412 8.41133 3573 ft 196 kts 110°
2026-04-30 18:51 47.54853 8.42857 3334 ft 176 kts 113°
2026-04-30 18:51 47.54244 8.44336 3099 ft 161 kts 118°
2026-04-30 18:51 47.53604 8.45609 2868 ft 149 kts 121°
2026-04-30 18:51 47.52941 8.46738 2670 ft 141 kts 124°
2026-04-30 18:52 47.52283 8.47772 2402 ft 141 kts 126°
2026-04-30 18:52 47.51576 8.48842 2172 ft 149 kts 127°
2026-04-30 18:52 47.50843 8.49925 2030 ft 146 kts 127°
2026-04-30 18:52 47.50139 8.50991 1895 ft 142 kts 129°
2026-04-30 18:53 47.49417 8.51963 1714 ft 136 kts 131°
2026-04-30 18:53 47.48746 8.52865 1583 ft 126 kts 128°
2026-04-30 18:53 47.48106 8.53741 1444 ft 127 kts 131°
2026-04-30 18:53 47.47488 8.54600 1404 ft 105 kts 137°
2026-04-30 18:54 47.47080 8.55147 1395 ft 53 kts 137°
2026-04-30 18:54 47.46887 8.55412 1404 ft 30 kts 139°
2026-04-30 18:54 47.46741 8.55611 1407 ft 28 kts 135°
2026-04-30 18:54 47.46605 8.55795 1398 ft 23 kts 137°
2026-04-30 18:55 47.46516 8.55887 1402 ft 9 kts 150°
2026-04-30 18:55 47.46418 8.55942 1400 ft 5 kts 165°
2026-04-30 18:55 47.46390 8.55953 1404 ft 5 kts 167°
2026-04-30 18:56 47.46270 8.55992 1409 ft 11 kts 167°
2026-04-30 18:56 47.46193 8.56004 1402 ft 11 kts 182°
2026-04-30 18:56 47.46117 8.55993 1403 ft 11 kts 186°
2026-04-30 18:57 47.45970 8.55969 1405 ft 11 kts 193°
2026-04-30 18:57 47.45890 8.55928 1408 ft 13 kts 200°
2026-04-30 18:57 47.45792 8.55879 1403 ft 16 kts 191°
2026-04-30 18:58 47.45652 8.55846 1409 ft 10 kts 214°
2026-04-30 18:58 47.45647 8.55742 1407 ft 11 kts 276°
2026-04-30 18:58 47.45655 8.55626 1400 ft 12 kts 276°
2026-04-30 18:59 47.45672 8.55387 1400 ft 9 kts 270°
2026-04-30 19:00 47.45561 8.55381 1407 ft 7 kts 155°
2026-04-30 19:00 47.45513 8.55414 1406 ft 8 kts 155°
2026-04-30 19:00 47.45397 8.55493 1408 ft 10 kts 155°
2026-04-30 19:01 47.45283 8.55573 1402 ft 5 kts 147°
2026-04-30 19:01 47.45270 8.55622 1404 ft 6 kts 93°
2026-04-30 19:02 47.45269 8.55741 1400 ft 2 kts 53°
2026-04-30 19:02 47.45301 8.55747 1400 ft 5 kts
2026-04-30 19:03 47.45331 8.55751 1407 ft 1 kts
2026-04-30 19:03 47.45346 8.55754 1407 ft 0 kts